Stanton, MN

1:03 AM CST on December 17, 2017 (GMT -0600)
Stanton

Weather History for KSYN - September, 2013

Change the Weather History Date:

Wednesday, September 11, 2013

  Actual Average (KLVN) Record (KLVN)
Temperature  
Mean Temperature 73 °F -  
Max Temperature 85 °F 75 °F 93 °F (1948)
Min Temperature 61 °F 51 °F 36 °F (1955)
Cooling Degree Days 8    
Growing Degree Days 23 (Base 50)    
Moisture  
Dew Point 57 °F    
Average Humidity 65    
Maximum Humidity 93    
Minimum Humidity 28    
Precipitation  
Precipitation 0.00 in - - ()
Sea Level Pressure  
Sea Level Pressure 30.02 in    
Wind  
Wind Speed 4 mph (West)    
Max Wind Speed 16 mph    
Max Gust Speed 24 mph    
Visibility 10 miles    
Events Rain    
Averages and records for this station are not official NWS values.
T = Trace of Precipitation, MM = Missing Value Source: NWS Daily Summary

Daily Weather History Graph

Daily Weather History Graph

Search for Another Location

Airport or City:

Trip Planner

Search our weather history database for the weather conditions in past years. The results will help you decide how hot, cold, wet, or windy it might be!

Date:

Astronomy

Sep. 11, 2013 Rise Set
Actual Time 6:46 AM CDT 7:29 PM CDT
Civil Twilight 6:17 AM CDT 7:58 PM CDT
Nautical Twilight 5:42 AM CDT 8:33 PM CDT
Astronomical Twilight 5:05 AM CDT 9:09 PM CDT
Moon 1:30 PM CDT (9/11) 11:10 PM CDT (9/11)
Length of Visible Light 13h 41m
Length of Day
12h 43m
Waxing Crescent, 39% of the Moon is Illuminated
Sep 11
Waxing Crescent
Sep 12
First Quarter
Sep 19
Full
Sep 26
Last Quarter
Oct 4
New

Hourly Weather History & Observations

Time (CDT) Temp. Heat Index Dew Point Humidity Pressure Visibility Wind Dir Wind Speed Gust Speed Precip Events Conditions
12:11 AM 70.7 °F - 64.9 °F 82% 29.98 in 10.0 mi Calm Calm - N/A Rain Light Rain
12:32 AM 69.4 °F - 64.8 °F 85% 29.98 in 10.0 mi Calm Calm - N/A   Clear
12:52 AM 68.5 °F - 64.8 °F 88% 30.00 in 10.0 mi Calm Calm - N/A   Clear
1:11 AM 68.4 °F - 64.4 °F 87% 30.00 in 10.0 mi Calm Calm - N/A   Clear
1:32 AM 67.6 °F - 63.9 °F 88% 30.00 in 10.0 mi Calm Calm - N/A   Clear
1:52 AM 66.4 °F - 63.1 °F 89% 30.00 in 10.0 mi Calm Calm - N/A   Clear
2:11 AM 66.6 °F - 63.5 °F 90% 30.00 in 10.0 mi Calm Calm - N/A   Clear
2:32 AM 66.2 °F - 63.5 °F 91% 29.99 in 10.0 mi Calm Calm - N/A   Clear
2:52 AM 66.4 °F - 63.1 °F 89% 30.00 in 10.0 mi Calm Calm - N/A   Clear
3:11 AM 66.7 °F - 63.3 °F 89% 30.00 in 10.0 mi Calm Calm - N/A   Clear
3:32 AM 66.0 °F - 62.8 °F 89% 30.00 in 10.0 mi South 3.5 mph - N/A   Clear
3:52 AM 64.6 °F - 61.9 °F 91% 30.00 in 10.0 mi Calm Calm - N/A   Clear
4:11 AM 64.6 °F - 62.1 °F 92% 30.00 in 10.0 mi Calm Calm - N/A   Clear
4:32 AM 64.0 °F - 61.7 °F 92% 30.01 in 10.0 mi SW 3.5 mph - N/A   Clear
4:52 AM 64.2 °F - 62.1 °F 93% 30.01 in 10.0 mi South 3.5 mph - N/A   Clear
5:11 AM 64.6 °F - 62.2 °F 92% 30.01 in 10.0 mi Calm Calm - N/A   Clear
5:32 AM 63.5 °F - 61.2 °F 92% 30.02 in 7.0 mi Calm Calm - N/A   Clear
5:51 AM 62.6 °F - 60.6 °F 93% 30.02 in 7.0 mi Calm Calm - N/A   Clear
6:12 AM 62.2 °F - 60.1 °F 93% 30.03 in 7.0 mi South 3.5 mph - N/A   Clear
6:32 AM 61.9 °F - 59.9 °F 93% 30.03 in 10.0 mi Calm Calm - N/A   Clear
6:52 AM 61.9 °F - 59.9 °F 93% 30.03 in 7.0 mi SSW 3.5 mph - N/A   Clear
7:12 AM 61.3 °F - 59.2 °F 93% 30.03 in 7.0 mi Calm Calm - N/A   Clear
7:32 AM 61.7 °F - 59.5 °F 93% 30.03 in 7.0 mi Calm Calm - N/A   Clear
7:52 AM 63.1 °F - 61.2 °F 93% 30.03 in 7.0 mi SSW 3.5 mph - N/A   Clear
8:12 AM 63.1 °F - 60.8 °F 92% 30.03 in 7.0 mi SSW 3.5 mph - N/A   Clear
8:31 AM 66.2 °F - 63.3 °F 90% 30.03 in 10.0 mi South 4.6 mph - N/A   Clear
8:52 AM 68.9 °F - 64.6 °F 86% 30.03 in 10.0 mi SSW 4.6 mph - N/A   Clear
9:12 AM 70.2 °F - 64.8 °F 83% 30.03 in 10.0 mi SSW 5.8 mph - N/A   Clear
9:31 AM 72.3 °F - 64.9 °F 78% 30.03 in 10.0 mi SSW 4.6 mph - N/A   Clear
9:52 AM 74.8 °F - 64.4 °F 70% 30.03 in 10.0 mi SSW 6.9 mph - N/A   Clear
10:12 AM 77.4 °F - 62.1 °F 59% 30.03 in 10.0 mi SW 8.1 mph - N/A   Clear
10:31 AM 78.6 °F - 61.9 °F 56% 30.03 in 10.0 mi WSW 8.1 mph - N/A   Clear
10:52 AM 80.2 °F 81.1 °F 60.8 °F 51% 30.03 in 10.0 mi WSW 10.4 mph - N/A   Clear
11:12 AM 81.0 °F 81.6 °F 59.9 °F 49% 30.03 in 10.0 mi WSW 10.4 mph - N/A   Clear
11:32 AM 82.0 °F 82.1 °F 58.8 °F 45% 30.02 in 10.0 mi SW 11.5 mph - N/A   Clear
11:52 AM 83.3 °F 82.5 °F 55.9 °F 39% 30.02 in 10.0 mi West 12.7 mph - N/A   Clear
12:12 PM 83.5 °F 82.4 °F 54.7 °F 37% 30.02 in 10.0 mi WNW 12.7 mph 17.3 mph N/A   Clear
12:32 PM 84.0 °F - 52.9 °F 34% 30.02 in 10.0 mi WNW 12.7 mph 17.3 mph N/A   Clear
12:52 PM 84.0 °F 82.6 °F 53.8 °F 35% 30.01 in 10.0 mi West 9.2 mph 18.4 mph N/A   Clear
1:12 PM 84.6 °F - 50.7 °F 31% 30.02 in 10.0 mi West 16.1 mph - N/A   Clear
1:32 PM 84.7 °F - 50.7 °F 31% 30.01 in 10.0 mi West 15.0 mph 20.7 mph N/A   Clear
1:52 PM 84.9 °F - 51.3 °F 31% 30.01 in 10.0 mi West 13.8 mph 21.9 mph N/A   Scattered Clouds
2:12 PM 82.8 °F - 50.0 °F 32% 30.01 in 10.0 mi West 13.8 mph 24.2 mph N/A   Scattered Clouds
2:32 PM 85.5 °F - 48.4 °F 28% 30.01 in 10.0 mi NW 12.7 mph 20.7 mph N/A   Scattered Clouds
2:52 PM 83.5 °F 82.2 °F 53.8 °F 36% 30.01 in 10.0 mi NW 13.8 mph 23.0 mph N/A   Scattered Clouds
3:12 PM 84.2 °F - 50.0 °F 30% 30.01 in 10.0 mi NW 15.0 mph 20.7 mph N/A   Clear
3:31 PM 85.3 °F - 52.2 °F 32% 30.00 in 10.0 mi NNW 13.8 mph 18.4 mph N/A   Clear
3:52 PM 85.3 °F - 51.4 °F 31% 30.01 in 10.0 mi NNW 13.8 mph 18.4 mph N/A   Scattered Clouds
4:12 PM 83.7 °F - 49.5 °F 30% 30.01 in 10.0 mi WNW 12.7 mph - N/A   Scattered Clouds
4:31 PM 84.6 °F - 48.2 °F 28% 30.02 in 10.0 mi WNW 12.7 mph 18.4 mph N/A   Scattered Clouds
4:52 PM 84.2 °F - 48.4 °F 29% 30.01 in 10.0 mi NW 10.4 mph - N/A   Mostly Cloudy
5:12 PM 83.5 °F - 49.1 °F 30% 30.01 in 10.0 mi NNW 13.8 mph - N/A   Scattered Clouds
5:32 PM 82.6 °F - 48.7 °F 31% 30.01 in 10.0 mi NW 10.4 mph - N/A   Clear
5:52 PM 82.2 °F - 48.6 °F 31% 30.02 in 10.0 mi NW 10.4 mph - N/A   Clear
6:12 PM 81.3 °F - 47.7 °F 31% 30.02 in 10.0 mi NW 6.9 mph - N/A   Clear
6:31 PM 80.1 °F - 48.6 °F 33% 30.02 in 10.0 mi NW 3.5 mph - N/A   Clear
6:52 PM 77.9 °F - 49.3 °F 37% 30.01 in 10.0 mi WNW 3.5 mph - N/A   Clear
7:12 PM 75.9 °F - 49.1 °F 39% 30.01 in 10.0 mi West 3.5 mph - N/A   Clear
7:31 PM 71.8 °F - 54.0 °F 53% 30.01 in 10.0 mi Calm Calm - N/A   Clear
7:52 PM 68.7 °F - 57.2 °F 67% 30.01 in 10.0 mi Calm Calm - N/A   Clear
8:12 PM 65.7 °F - 56.7 °F 73% 30.01 in 7.0 mi Calm Calm - N/A   Clear
8:31 PM 64.0 °F - 56.7 °F 77% 30.02 in 10.0 mi Calm Calm - N/A   Clear
8:52 PM 63.3 °F - 55.8 °F 76% 30.03 in 10.0 mi SSW 3.5 mph - N/A   Clear
9:12 PM 64.2 °F - 55.4 °F 73% 30.03 in 10.0 mi SSW 4.6 mph - N/A   Clear
9:31 PM 63.5 °F - 55.8 °F 76% 30.03 in 10.0 mi SSW 4.6 mph - N/A   Clear
9:52 PM 62.8 °F - 55.8 °F 78% 30.03 in 10.0 mi SSW 3.5 mph - N/A   Clear
10:12 PM 61.9 °F - 55.6 °F 80% 30.03 in 10.0 mi SSW 3.5 mph - N/A   Clear
10:31 PM 61.2 °F - 55.2 °F 81% 30.04 in 10.0 mi SW 3.5 mph - N/A   Clear
10:52 PM 64.4 °F - 53.6 °F 68% 30.04 in 10.0 mi WNW 6.9 mph - N/A   Clear
11:12 PM 64.8 °F - 52.9 °F 65% 30.04 in 10.0 mi NW 8.1 mph - N/A   Clear
11:31 PM 66.4 °F - 52.7 °F 61% 30.04 in 10.0 mi NW 8.1 mph - N/A   Clear
11:52 PM 66.4 °F - 51.6 °F 59% 30.05 in 10.0 mi NW 8.1 mph - N/A   Clear